Total_Precipitation_Accumulation
0.21 0.24 0.34 0.52 0.62 0.55 0.49 0.49 0.57 0.50 0.49 0.54 0.61 0.68 0.64 0.59 0.58 0.57 0.58 0.56 0.58 0.63 0.61 0.55 0.53 0.55 0.65 0.81 0.97 1.18 1.42 1.41 1.27 1.21 1.17 1.05 0.99 1.01 0.98 0.98 0.91 0.89 0.96 1.05
0.15 0.15 0.21 0.33 0.36 0.31 0.24 0.32 0.42 0.46 0.52 0.56 0.62 0.68 0.62 0.53 0.47 0.40 0.39 0.40 0.44 0.46 0.52 0.44 0.37 0.38 0.41 0.52 0.73 0.89 1.10 1.19 1.17 1.09 0.99 0.96 0.97 0.95 0.91 0.89 0.84 0.78 0.78 0.83
0.16 0.15 0.20 0.28 0.26 0.26 0.30 0.32 0.37 0.48 0.58 0.60 0.71 0.89 0.79 0.61 0.52 0.40 0.33 0.33 0.36 0.38 0.43 0.44 0.41 0.38 0.39 0.46 0.56 0.68 0.85 0.97 0.96 0.91 0.82 0.82 0.86 0.84 0.80 0.74 0.73 0.69 0.68 0.65
0.27 0.30 0.42 0.37 0.27 0.34 0.45 0.40 0.40 0.50 0.56 0.64 0.95 1.15 0.77 0.54 0.49 0.42 0.34 0.32 0.33 0.36 0.37 0.37 0.39 0.40 0.41 0.42 0.44 0.50 0.60 0.67 0.70 0.72 0.70 0.71 0.72 0.72 0.77 0.73 0.66 0.63 0.66 0.71
0.41 0.43 0.59 0.49 0.29 0.41 0.48 0.44 0.36 0.46 0.52 0.53 0.57 0.52 0.34 0.23 0.24 0.27 0.23 0.22 0.22 0.22 0.23 0.25 0.27 0.31 0.33 0.38 0.41 0.40 0.42 0.47 0.51 0.54 0.58 0.63 0.65 0.69 0.81 0.80 0.73 0.70 0.78 0.83
0.38 0.43 0.48 0.44 0.25 0.28 0.39 0.49 0.26 0.27 0.30 0.25 0.21 0.22 0.23 0.20 0.15 0.14 0.13 0.13 0.14 0.13 0.12 0.15 0.19 0.23 0.27 0.33 0.38 0.38 0.39 0.41 0.46 0.47 0.50 0.57 0.65 0.68 0.67 0.65 0.67 0.72 0.73 0.68
0.31 0.33 0.26 0.21 0.21 0.26 0.47 0.49 0.22 0.20 0.20 0.16 0.16 0.17 0.20 0.22 0.16 0.13 0.11 0.11 0.11 0.11 0.12 0.14 0.18 0.22 0.26 0.32 0.34 0.36 0.42 0.44 0.45 0.46 0.48 0.52 0.52 0.49 0.51 0.57 0.56 0.53 0.53 0.57
0.29 0.33 0.28 0.19 0.23 0.31 0.31 0.20 0.18 0.20 0.19 0.17 0.15 0.14 0.14 0.16 0.14 0.12 0.10 0.10 0.10 0.12 0.14 0.13 0.16 0.20 0.26 0.34 0.35 0.36 0.37 0.37 0.36 0.37 0.38 0.40 0.42 0.40 0.39 0.45 0.49 0.51 0.53 0.56
0.36 0.34 0.27 0.23 0.26 0.24 0.22 0.21 0.19 0.22 0.19 0.17 0.15 0.13 0.12 0.13 0.12 0.11 0.11 0.12 0.12 0.14 0.19 0.22 0.18 0.21 0.27 0.34 0.39 0.38 0.35 0.30 0.31 0.31 0.32 0.31 0.34 0.38 0.41 0.42 0.44 0.45 0.48 0.53
0.29 0.24 0.21 0.21 0.21 0.22 0.22 0.21 0.18 0.19 0.18 0.18 0.19 0.17 0.15 0.13 0.12 0.12 0.11 0.11 0.14 0.19 0.23 0.27 0.26 0.28 0.31 0.34 0.35 0.35 0.32 0.29 0.29 0.29 0.29 0.28 0.30 0.34 0.36 0.38 0.39 0.43 0.48 0.52
0.24 0.20 0.19 0.17 0.17 0.16 0.15 0.15 0.16 0.17 0.16 0.17 0.18 0.19 0.17 0.13 0.13 0.12 0.11 0.11 0.14 0.21 0.24 0.26 0.29 0.34 0.36 0.34 0.30 0.30 0.29 0.29 0.27 0.30 0.30 0.27 0.26 0.29 0.34 0.38 0.46 0.51 0.53 0.55
0.24 0.18 0.18 0.16 0.13 0.11 0.13 0.13 0.14 0.17 0.15 0.14 0.14 0.15 0.14 0.14 0.15 0.13 0.12 0.13 0.17 0.21 0.23 0.25 0.28 0.32 0.33 0.31 0.27 0.27 0.28 0.28 0.27 0.26 0.27 0.28 0.30 0.29 0.33 0.37 0.47 0.53 0.57 0.57
0.20 0.18 0.16 0.13 0.11 0.12 0.14 0.12 0.12 0.13 0.14 0.14 0.13 0.13 0.13 0.13 0.15 0.15 0.15 0.15 0.17 0.18 0.19 0.21 0.24 0.25 0.25 0.28 0.25 0.23 0.26 0.27 0.27 0.26 0.26 0.27 0.30 0.34 0.37 0.35 0.34 0.37 0.43 0.50
0.14 0.15 0.16 0.13 0.11 0.12 0.13 0.12 0.11 0.11 0.11 0.13 0.15 0.15 0.15 0.15 0.17 0.16 0.16 0.15 0.16 0.18 0.16 0.17 0.21 0.22 0.23 0.24 0.25 0.26 0.29 0.27 0.28 0.29 0.30 0.33 0.34 0.37 0.48 0.54 0.48 0.38 0.39 0.44
0.11 0.13 0.14 0.14 0.13 0.12 0.12 0.12 0.12 0.12 0.12 0.13 0.14 0.14 0.14 0.15 0.17 0.17 0.15 0.15 0.16 0.16 0.16 0.16 0.19 0.20 0.21 0.23 0.25 0.26 0.29 0.32 0.34 0.37 0.36 0.38 0.42 0.46 0.50 0.44 0.43 0.44 0.42 0.41
0.12 0.13 0.14 0.15 0.15 0.13 0.13 0.12 0.13 0.13 0.14 0.15 0.15 0.14 0.14 0.17 0.19 0.18 0.15 0.15 0.16 0.15 0.14 0.15 0.17 0.19 0.20 0.22 0.25 0.24 0.24 0.34 0.39 0.45 0.42 0.39 0.45 0.46 0.43 0.41 0.45 0.48 0.45 0.44
0.16 0.15 0.17 0.18 0.17 0.16 0.16 0.16 0.15 0.15 0.15 0.17 0.18 0.17 0.16 0.15 0.17 0.16 0.15 0.15 0.13 0.11 0.12 0.14 0.16 0.19 0.22 0.24 0.26 0.25 0.26 0.30 0.35 0.42 0.44 0.42 0.48 0.48 0.45 0.43 0.45 0.48 0.48 0.51
0.18 0.17 0.18 0.19 0.19 0.20 0.20 0.19 0.18 0.16 0.17 0.18 0.20 0.19 0.18 0.18 0.20 0.17 0.16 0.16 0.14 0.13 0.15 0.18 0.20 0.21 0.22 0.23 0.24 0.26 0.27 0.29 0.31 0.37 0.41 0.44 0.47 0.47 0.49 0.46 0.43 0.44 0.46 0.49
0.19 0.21 0.21 0.22 0.23 0.23 0.22 0.22 0.21 0.19 0.20 0.23 0.26 0.23 0.20 0.21 0.23 0.19 0.19 0.19 0.18 0.19 0.19 0.22 0.26 0.25 0.24 0.24 0.26 0.26 0.27 0.30 0.31 0.33 0.36 0.43 0.44 0.43 0.47 0.48 0.46 0.46 0.47 0.46
0.25 0.26 0.28 0.30 0.29 0.27 0.25 0.23 0.22 0.23 0.23 0.26 0.28 0.27 0.24 0.22 0.20 0.21 0.22 0.22 0.22 0.24 0.27 0.27 0.26 0.27 0.27 0.28 0.31 0.30 0.30 0.32 0.34 0.36 0.38 0.43 0.44 0.44 0.45 0.43 0.44 0.47 0.48 0.46
0.28 0.27 0.27 0.29 0.30 0.30 0.30 0.28 0.26 0.24 0.25 0.29 0.33 0.33 0.32 0.29 0.28 0.27 0.25 0.25 0.24 0.26 0.27 0.29 0.26 0.28 0.31 0.34 0.36 0.34 0.33 0.36 0.38 0.40 0.43 0.47 0.48 0.46 0.45 0.44 0.45 0.48 0.45 0.45
0.30 0.28 0.29 0.30 0.31 0.30 0.31 0.32 0.29 0.28 0.29 0.32 0.35 0.35 0.36 0.35 0.34 0.33 0.30 0.31 0.31 0.37 0.34 0.31 0.30 0.37 0.43 0.44 0.37 0.36 0.36 0.39 0.41 0.44 0.47 0.51 0.52 0.50 0.49 0.47 0.47 0.46 0.44 0.46
0.29 0.28 0.30 0.31 0.30 0.29 0.30 0.32 0.31 0.29 0.31 0.33 0.35 0.36 0.37 0.35 0.33 0.33 0.34 0.35 0.36 0.41 0.38 0.37 0.42 0.47 0.50 0.43 0.41 0.40 0.40 0.44 0.46 0.46 0.51 0.55 0.56 0.56 0.54 0.54 0.53 0.51 0.49 0.50
0.25 0.26 0.28 0.28 0.28 0.29 0.31 0.30 0.30 0.30 0.29 0.29 0.30 0.32 0.35 0.37 0.35 0.32 0.35 0.41 0.45 0.46 0.39 0.43 0.47 0.50 0.50 0.43 0.42 0.41 0.42 0.47 0.50 0.50 0.55 0.58 0.57 0.57 0.57 0.57 0.55 0.55 0.54 0.53
0.24 0.24 0.25 0.26 0.27 0.29 0.29 0.28 0.29 0.29 0.30 0.29 0.27 0.28 0.33 0.37 0.41 0.40 0.40 0.43 0.49 0.50 0.45 0.47 0.48 0.47 0.42 0.41 0.43 0.43 0.45 0.50 0.55 0.59 0.60 0.61 0.58 0.57 0.56 0.56 0.58 0.60 0.59 0.59
0.23 0.24 0.24 0.24 0.27 0.29 0.29 0.30 0.32 0.30 0.32 0.33 0.31 0.31 0.35 0.40 0.42 0.44 0.45 0.49 0.51 0.55 0.49 0.46 0.45 0.45 0.43 0.45 0.47 0.47 0.50 0.53 0.56 0.59 0.60 0.61 0.59 0.57 0.57 0.59 0.60 0.63 0.65 0.66
0.25 0.24 0.24 0.26 0.28 0.31 0.33 0.34 0.37 0.38 0.38 0.36 0.35 0.34 0.39 0.46 0.45 0.45 0.47 0.50 0.53 0.53 0.52 0.52 0.51 0.53 0.55 0.57 0.58 0.57 0.56 0.56 0.54 0.56 0.60 0.63 0.63 0.62 0.61 0.61 0.62 0.63 0.66 0.67